KD6VLN-14 Weather Reports


time (UTC)temp
C
wind
direction
speed
KPH
gust
KPH
rain 1hr
cm
rain 24hr
cm
rain mn
cm
humidity
%
barometer
mb
20260507023407 20 285 4.8 11.3 0.00 0.00 0.00 36
20260507022909 20 278 4.8 9.7 0.00 0.00 0.00 36
20260507022407 20 275 3.2 9.7 0.00 0.00 0.00 35
20260507021907 21 294 4.8 9.7 0.00 0.00 0.00 35
20260507021408 21 274 4.8 11.3 0.00 0.00 0.00 36
20260507020907 22 266 6.4 11.3 0.00 0.00 0.00 36
20260507020407 22 281 4.8 11.3 0.00 0.00 0.00 36
20260507015907 22 300 4.8 9.7 0.00 0.00 0.00 35
20260507015407 23 300 4.8 9.7 0.00 0.00 0.00 35
20260507014907 23 282 6.4 11.3 0.00 0.00 0.00 35
20260507014408 23 301 4.8 11.3 0.00 0.00 0.00 35
20260507013907 24 300 4.8 8.0 0.00 0.00 0.00 35
20260507013407 25 312 4.8 9.7 0.00 0.00 0.00 35
20260507012907 25 288 4.8 9.7 0.00 0.00 0.00 35
20260507012407 25 290 4.8 9.7 0.00 0.00 0.00 35
20260507011907 26 293 4.8 9.7 0.00 0.00 0.00 35
20260507011410 26 315 3.2 8.0 0.00 0.00 0.00 35
20260507010907 26 282 4.8 8.0 0.00 0.00 0.00 35
20260507010407 27 300 4.8 12.9 0.00 0.00 0.00 35
20260507005907 27 300 6.4 12.9 0.00 0.00 0.00 35
20260507005407 27 310 3.2 8.0 0.00 0.00 0.00 35
20260507004907 27 342 3.2 8.0 0.00 0.00 0.00 35
20260507004407 27 316 4.8 11.3 0.00 0.00 0.00 35
20260507003907 27 309 6.4 14.5 0.00 0.00 0.00 35
20260507003522 28 312 4.8 14.5 0.00 0.00 0.00 35
20260507003407 28 312 4.8 14.5 0.00 0.00 0.00 35
20260507003235 28 312 4.8 9.7 0.00 0.00 0.00 35
20260507002907 28 312 4.8 9.7 0.00 0.00 0.00 35
20260507002407 28 310 4.8 9.7 0.00 0.00 0.00 35
20260507001907 28 340 4.8 9.7 0.00 0.00 0.00 35
20260507001407 28 310 3.2 8.0 0.00 0.00 0.00 35
20260507000907 28 0 1.6 11.3 0.00 0.00 0.00 35
20260507000409 28 319 4.8 11.3 0.00 0.00 0.00 35
20260506235907 28 356 4.8 9.7 0.00 0.00 0.00 35
20260506235407 28 347 4.8 11.3 0.00 0.00 0.00 35
20260506234907 28 322 4.8 11.3 0.00 0.00 0.00 35
20260506234407 28 351 4.8 14.5 0.00 0.00 0.00 35
20260506233907 28 298 8.0 14.5 0.00 0.00 0.00 35
20260506233407 28 321 4.8 9.7 0.00 0.00 0.00 35
20260506232907 28 316 6.4 9.7 0.00 0.00 0.00 35
20260506232407 28 310 6.4 11.3 0.00 0.00 0.00 35
20260506231907 28 6 4.8 11.3 0.00 0.00 0.00 35
20260506231407 28 319 4.8 9.7 0.00 0.00 0.00 35
20260506230907 28 317 4.8 9.7 0.00 0.00 0.00 35
20260506230407 28 188 4.8 8.0 0.00 0.00 0.00 36
20260506225908 28 242 4.8 9.7 0.00 0.00 0.00 36
20260506225906 28 311 4.8 12.9 0.00 0.00 0.00 34
20260506225407 28 311 4.8 12.9 0.00 0.00 0.00 34
20260506225212 28 309 6.4 12.9 0.00 0.00 0.00 34
20260506224907 28 309 6.4 12.9 0.00 0.00 0.00 34
20260506224651 28 283 6.4 16.1 0.00 0.00 0.00 34
20260506224410 28 283 6.4 16.1 0.00 0.00 0.00 34
20260506224226 28 272 8.0 16.1 0.00 0.00 0.00 35
20260506223907 28 272 8.0 16.1 0.00 0.00 0.00 35
20260506223710 29 305 8.0 16.1 0.00 0.00 0.00 34
20260506223407 29 305 8.0 16.1 0.00 0.00 0.00 34
20260506223147 29 347 4.8 11.3 0.00 0.00 0.00 34
20260506222907 29 347 4.8 11.3 0.00 0.00 0.00 34
20260506222644 29 301 6.4 11.3 0.00 0.00 0.00 34
20260506222408 29 301 6.4 11.3 0.00 0.00 0.00 34
20260506222214 28 306 4.8 11.3 0.00 0.00 0.00 34
20260506221908 28 306 4.8 11.3 0.00 0.00 0.00 34
20260506221710 28 348 4.8 11.3 0.00 0.00 0.00 35
20260506221407 28 348 4.8 11.3 0.00 0.00 0.00 35
20260506221312 28 247 4.8 16.1 0.00 0.00 0.00 36
20260506220907 28 247 4.8 16.1 0.00 0.00 0.00 36
20260506220640 28 252 8.0 16.1 0.00 0.00 0.00 36
20260506220407 28 252 8.0 16.1 0.00 0.00 0.00 36
20260506220325 28 267 6.4 16.1 0.00 0.00 0.00 36
20260506215907 28 267 6.4 16.1 0.00 0.00 0.00 36
20260506215657 28 355 1.6 12.9 0.00 0.00 0.00 35
20260506215408 28 355 1.6 12.9 0.00 0.00 0.00 35
20260506215301 28 283 4.8 14.5 0.00 0.00 0.00 35
20260506214907 28 283 4.8 14.5 0.00 0.00 0.00 35
20260506214658 29 272 8.0 14.5 0.00 0.00 0.00 35
20260506214408 29 272 8.0 14.5 0.00 0.00 0.00 35
20260506214259 29 279 3.2 11.3 0.00 0.00 0.00 34
20260506213907 29 279 3.2 11.3 0.00 0.00 0.00 34
20260506213650 29 271 4.8 11.3 0.00 0.00 0.00 34
20260506213407 29 271 4.8 11.3 0.00 0.00 0.00 34
20260506213207 28 357 1.6 12.9 0.00 0.00 0.00 34
20260506212907 28 357 1.6 12.9 0.00 0.00 0.00 34
20260506212805 28 295 4.8 12.9 0.00 0.00 0.00 36
20260506212412 28 295 4.8 12.9 0.00 0.00 0.00 36
20260506212246 28 324 4.8 9.7 0.00 0.00 0.00 35
20260506211907 28 324 4.8 9.7 0.00 0.00 0.00 35
20260506211651 27 324 4.8 8.0 0.00 0.00 0.00 34
20260506211407 27 324 4.8 8.0 0.00 0.00 0.00 34
20260506211123 27 354 4.8 11.3 0.00 0.00 0.00 35
20260506210907 27 354 4.8 11.3 0.00 0.00 0.00 35
20260506210639 27 317 6.4 11.3 0.00 0.00 0.00 35
20260506210407 27 317 6.4 11.3 0.00 0.00 0.00 35
20260506210205 27 8 4.8 11.3 0.00 0.00 0.00 35
20260506205907 27 8 4.8 11.3 0.00 0.00 0.00 35
20260506205630 27 3 4.8 12.9 0.00 0.00 0.00 35
20260506205407 27 3 4.8 12.9 0.00 0.00 0.00 35
20260506204658 27 42 6.4 16.1 0.00 0.00 0.00 35
20260506204408 27 42 6.4 16.1 0.00 0.00 0.00 35
20260506204303 27 2 6.4 16.1 0.00 0.00 0.00 35
20260506203907 27 2 6.4 16.1 0.00 0.00 0.00 35
20260506203646 28 320 4.8 12.9 0.00 0.00 0.00 35
20260506203407 28 320 4.8 12.9 0.00 0.00 0.00 35
20260506203220 27 289 4.8 12.9 0.00 0.00 0.00 36
20260506202907 27 289 4.8 12.9 0.00 0.00 0.00 36
20260506202759 27 278 4.8 12.9 0.00 0.00 0.00 36
20260506202408 27 278 4.8 12.9 0.00 0.00 0.00 36
20260506202200 26 50 4.8 11.3 0.00 0.00 0.00 35
20260506201907 26 50 4.8 11.3 0.00 0.00 0.00 35
20260506201701 26 266 4.8 11.3 0.00 0.00 0.00 36
20260506201407 26 266 4.8 11.3 0.00 0.00 0.00 36
20260506201232 26 248 4.8 12.9 0.00 0.00 0.00 36
20260506200908 26 248 4.8 12.9 0.00 0.00 0.00 36
20260506200635 26 259 6.4 14.5 0.00 0.00 0.00 36
20260506200407 26 259 6.4 14.5 0.00 0.00 0.00 36
20260506200148 27 244 9.7 14.5 0.00 0.00 0.00 36
20260506195907 27 244 9.7 14.5 0.00 0.00 0.00 36
20260506195704 27 264 4.8 11.3 0.00 0.00 0.00 36
20260506195408 27 264 4.8 11.3 0.00 0.00 0.00 36
20260506195216 27 263 4.8 11.3 0.00 0.00 0.00 36
20260506194907 27 263 4.8 11.3 0.00 0.00 0.00 36
20260506194652 26 287 4.8 8.0 0.00 0.00 0.00 36
20260506194408 26 287 4.8 8.0 0.00 0.00 0.00 36
20260506194220 26 358 3.2 8.0 0.00 0.00 0.00 35
20260506193907 26 358 3.2 8.0 0.00 0.00 0.00 35
20260506193717 26 309 4.8 12.9 0.00 0.00 0.00 36
20260506193407 26 309 4.8 12.9 0.00 0.00 0.00 36
20260506193145 26 271 6.4 12.9 0.00 0.00 0.00 36
20260506192907 26 271 6.4 12.9 0.00 0.00 0.00 36
20260506192705 26 354 6.4 14.5 0.00 0.00 0.00 36
20260506192408 26 354 6.4 14.5 0.00 0.00 0.00 36
20260506192241 25 262 6.4 14.5 0.00 0.00 0.00 36
20260506191907 25 262 6.4 14.5 0.00 0.00 0.00 36
20260506191627 26 245 8.0 12.9 0.00 0.00 0.00 36
20260506191407 26 245 8.0 12.9 0.00 0.00 0.00 36
20260506191243 25 273 4.8 12.9 0.00 0.00 0.00 36
20260506190908 25 273 4.8 12.9 0.00 0.00 0.00 36
20260506190834 25 358 4.8 9.7 0.00 0.00 0.00 35
20260506190407 25 358 4.8 9.7 0.00 0.00 0.00 35
20260506190248 25 275 4.8 11.3 0.00 0.00 0.00 36
20260506185907 25 275 4.8 11.3 0.00 0.00 0.00 36
20260506185842 25 312 6.4 11.3 0.00 0.00 0.00 35
20260506185811 25 312 6.4 11.3 0.00 0.00 0.00 35
20260506185407 25 312 6.4 11.3 0.00 0.00 0.00 35
20260506185314 25 315 4.8 11.3 0.00 0.00 0.00 36
20260506184907 25 315 4.8 11.3 0.00 0.00 0.00 36
20260506184703 25 112 4.8 11.3 0.00 0.00 0.00 36
20260506184407 25 112 4.8 11.3 0.00 0.00 0.00 36
20260506184156 25 317 3.2 8.0 0.00 0.00 0.00 36
20260506183907 25 317 3.2 8.0 0.00 0.00 0.00 36
20260506183514 25 354 3.2 11.3 0.00 0.00 0.00 35
20260506183407 25 354 3.2 11.3 0.00 0.00 0.00 35
20260506183132 25 313 4.8 14.5 0.00 0.00 0.00 36
20260506182907 25 313 4.8 14.5 0.00 0.00 0.00 36
20260506182642 25 278 6.4 14.5 0.00 0.00 0.00 36
20260506182407 25 278 6.4 14.5 0.00 0.00 0.00 36
20260506182244 25 227 4.8 11.3 0.00 0.00 0.00 36
20260506181907 25 227 4.8 11.3 0.00 0.00 0.00 36
20260506181707 25 259 6.4 11.3 0.00 0.00 0.00 36
20260506181407 25 259 6.4 11.3 0.00 0.00 0.00 36
20260506181201 25 283 3.2 16.1 0.00 0.00 0.00 36
20260506180908 25 283 3.2 16.1 0.00 0.00 0.00 36
20260506180610 25 299 4.8 16.1 0.00 0.00 0.00 36
20260506180409 25 299 4.8 16.1 0.00 0.00 0.00 36
20260506180148 25 322 3.2 11.3 0.00 0.00 0.00 36
20260506175907 25 322 3.2 11.3 0.00 0.00 0.00 36
20260506175734 24 358 1.6 11.3 0.00 0.00 0.00 36
20260506175407 24 358 1.6 11.3 0.00 0.00 0.00 36
20260506175219 25 217 4.8 11.3 0.00 0.00 0.00 37
20260506174907 25 217 4.8 11.3 0.00 0.00 0.00 37
20260506174634 25 232 6.4 9.7 0.00 0.00 0.00 37
20260506174407 25 232 6.4 9.7 0.00 0.00 0.00 37
20260506174209 25 272 3.2 8.0 0.00 0.00 0.00 36
20260506173907 25 272 3.2 8.0 0.00 0.00 0.00 36
20260506173712 24 311 4.8 8.0 0.00 0.00 0.00 36
20260506173407 24 311 4.8 8.0 0.00 0.00 0.00 36
20260506173147 23 7 1.6 9.7 0.00 0.00 0.00 36
20260506172908 23 7 1.6 9.7 0.00 0.00 0.00 36
20260506172657 23 42 4.8 11.3 0.00 0.00 0.00 35
20260506172407 23 42 4.8 11.3 0.00 0.00 0.00 35
20260506172135 23 4 6.4 11.3 0.00 0.00 0.00 35
20260506171907 23 4 6.4 11.3 0.00 0.00 0.00 35
20260506171643 23 252 6.4 11.3 0.00 0.00 0.00 36
20260506171407 23 252 6.4 11.3 0.00 0.00 0.00 36
20260506171213 23 4 4.8 8.0 0.00 0.00 0.00 36
20260506170908 23 4 4.8 8.0 0.00 0.00 0.00 36
20260506170654 23 10 4.8 9.7 0.00 0.00 0.00 35
20260506170407 23 10 4.8 9.7 0.00 0.00 0.00 35
20260506170115 23 9 4.8 9.7 0.00 0.00 0.00 36
20260506165907 23 9 4.8 9.7 0.00 0.00 0.00 36
20260506165651 23 280 4.8 9.7 0.00 0.00 0.00 36
20260506165407 23 280 4.8 9.7 0.00 0.00 0.00 36
20260506165155 23 34 3.2 8.0 0.00 0.00 0.00 35
20260506164907 23 34 3.2 8.0 0.00 0.00 0.00 35
20260506164652 23 355 3.2 8.0 0.00 0.00 0.00 36
20260506164407 23 355 3.2 8.0 0.00 0.00 0.00 36
20260506164219 23 7 3.2 8.0 0.00 0.00 0.00 36
20260506163907 23 7 3.2 8.0 0.00 0.00 0.00 36
20260506163706 23 264 3.2 9.7 0.00 0.00 0.00 36
20260506163407 23 264 3.2 9.7 0.00 0.00 0.00 36
20260506163231 23 266 4.8 9.7 0.00 0.00 0.00 37
20260506162907 23 266 4.8 9.7 0.00 0.00 0.00 37
20260506162407 23 304 3.2 9.7 0.00 0.00 0.00 36
20260506162246 23 272 4.8 9.7 0.00 0.00 0.00 36
20260506161907 23 272 4.8 9.7 0.00 0.00 0.00 36
20260506161714 22 358 1.6 9.7 0.00 0.00 0.00 36
20260506161407 22 358 1.6 9.7 0.00 0.00 0.00 36
20260506161304 22 10 4.8 9.7 0.00 0.00 0.00 36
20260506160908 22 10 4.8 9.7 0.00 0.00 0.00 36
20260506160758 22 316 3.2 9.7 0.00 0.00 0.00 36
20260506160407 22 316 3.2 9.7 0.00 0.00 0.00 36
20260506160240 22 285 4.8 9.7 0.00 0.00 0.00 36
20260506155908 22 285 4.8 9.7 0.00 0.00 0.00 36
20260506155819 22 89 3.2 8.0 0.00 0.00 0.00 36
20260506155407 22 89 3.2 8.0 0.00 0.00 0.00 36
20260506155336 22 169 4.8 8.0 0.00 0.00 0.00 37
20260506154907 22 169 4.8 8.0 0.00 0.00 0.00 37
20260506154100 22 275 3.2 9.7 0.00 0.00 0.00 36
20260506153907 22 275 3.2 9.7 0.00 0.00 0.00 36
20260506153553 22 237 4.8 8.0 0.00 0.00 0.00 37
20260506153408 22 237 4.8 8.0 0.00 0.00 0.00 37
20260506153142 21 100 1.6 8.0 0.00 0.00 0.00 36
20260506152908 21 100 1.6 8.0 0.00 0.00 0.00 36
20260506152706 21 117 3.2 6.4 0.00 0.00 0.00 37
20260506152408 21 117 3.2 6.4 0.00 0.00 0.00 37
20260506152221 21 174 3.2 6.4 0.00 0.00 0.00 37
20260506151907 21 174 3.2 6.4 0.00 0.00 0.00 37
20260506151651 21 228 3.2 6.4 0.00 0.00 0.00 37
20260506151407 21 228 3.2 6.4 0.00 0.00 0.00 37
20260506151213 21 311 1.6 8.0 0.00 0.00 0.00 37
20260506150908 21 311 1.6 8.0 0.00 0.00 0.00 37
20260506150733 20 239 3.2 8.0 0.00 0.00 0.00 37
20260506150407 20 239 3.2 8.0 0.00 0.00 0.00 37
20260506150224 20 41 1.6 4.8 0.00 0.00 0.00 38
20260506145907 20 41 1.6 4.8 0.00 0.00 0.00 38
20260506145726 20 46 1.6 4.8 0.00 0.00 0.00 37
20260506145408 20 46 1.6 4.8 0.00 0.00 0.00 37
20260506145157 19 315 1.6 4.8 0.00 0.00 0.00 37
20260506144907 19 315 1.6 4.8 0.00 0.00 0.00 37
20260506144650 19 245 1.6 4.8 0.00 0.00 0.00 38
20260506144407 19 245 1.6 4.8 0.00 0.00 0.00 38
20260506144103 19 234 3.2 4.8 0.00 0.00 0.00 38
20260506143908 19 234 3.2 4.8 0.00 0.00 0.00 38
20260506143757 18 140 1.6 4.8 0.00 0.00 0.00 40
20260506143408 18 140 1.6 4.8 0.00 0.00 0.00 40
20260506143217 17 157 0.0 0.0 0.00 0.00 0.00 40
20260506142908 17 157 0.0 0.0 0.00 0.00 0.00 40
20260506142628 17 175 0.0 0.0 0.00 0.00 0.00 39
20260506142409 17 175 0.0 0.0 0.00 0.00 0.00 39
20260506142126 17 135 0.0 3.2 0.00 0.00 0.00 37
20260506141908 17 135 0.0 3.2 0.00 0.00 0.00 37
20260506141656 16 111 0.0 3.2 0.00 0.00 0.00 38
20260506141408 16 111 0.0 3.2 0.00 0.00 0.00 38
20260506141142 16 71 0.0 4.8 0.00 0.00 0.00 38
20260506140908 16 71 0.0 4.8 0.00 0.00 0.00 38
20260506140605 16 73 1.6 6.4 0.00 0.00 0.00 38
20260506140408 16 73 1.6 6.4 0.00 0.00 0.00 38
20260506140029 15 50 3.2 6.4 0.00 0.00 0.00 38
20260506135908 15 50 3.2 6.4 0.00 0.00 0.00 38
20260506135540 15 108 3.2 6.4 0.00 0.00 0.00 38
20260506135408 15 108 3.2 6.4 0.00 0.00 0.00 38
20260506135045 15 83 1.6 6.4 0.00 0.00 0.00 37
20260506134910 15 83 1.6 6.4 0.00 0.00 0.00 37
20260506134519 14 75 1.6 6.4 0.00 0.00 0.00 36
20260506134408 14 75 1.6 6.4 0.00 0.00 0.00 36
20260506134010 13 66 1.6 6.4 0.00 0.00 0.00 36
20260506133908 13 66 1.6 6.4 0.00 0.00 0.00 36
20260506133515 13 58 1.6 6.4 0.00 0.00 0.00 36
20260506133407 13 58 1.6 6.4 0.00 0.00 0.00 36
20260506133037 13 84 1.6 4.8 0.00 0.00 0.00 36
20260506132908 13 84 1.6 4.8 0.00 0.00 0.00 36
20260506132537 12 55 0.0 4.8 0.00 0.00 0.00 35
20260506132409 12 55 0.0 4.8 0.00 0.00 0.00 35
20260506131908 12 51 0.0 0.0 0.00 0.00 0.00 35
20260506131540 12 70 0.0 0.0 0.00 0.00 0.00 36
20260506131408 12 70 0.0 0.0 0.00 0.00 0.00 36
20260506131030 11 67 0.0 0.0 0.00 0.00 0.00 36
20260506130908 11 67 0.0 0.0 0.00 0.00 0.00 36
20260506130525 11 59 0.0 0.0 0.00 0.00 0.00 35
20260506130408 11 59 0.0 0.0 0.00 0.00 0.00 35
20260506130043 10 66 0.0 0.0 0.00 0.00 0.00 35
20260506125908 10 66 0.0 0.0 0.00 0.00 0.00 35
20260506125530 9 82 0.0 0.0 0.00 0.00 0.00 36
20260506125408 9 82 0.0 0.0 0.00 0.00 0.00 36
20260506125101 9 86 0.0 0.0 0.00 0.00 0.00 36
20260506124908 9 86 0.0 0.0 0.00 0.00 0.00 36
20260506124602 8 65 0.0 0.0 0.00 0.00 0.00 35
20260506124408 8 65 0.0 0.0 0.00 0.00 0.00 35
20260506124119 9 50 0.0 0.0 0.00 0.00 0.00 35
20260506123908 9 50 0.0 0.0 0.00 0.00 0.00 35
20260506123628 9 51 0.0 0.0 0.00 0.00 0.00 35
20260506123408 9 51 0.0 0.0 0.00 0.00 0.00 35
20260506122636 9 52 0.0 0.0 0.00 0.00 0.00 35
20260506122410 9 52 0.0 0.0 0.00 0.00 0.00 35
20260506122056 9 50 0.0 0.0 0.00 0.00 0.00 35
20260506121908 9 50 0.0 0.0 0.00 0.00 0.00 35
20260506121654 9 49 0.0 0.0 0.00 0.00 0.00 35
20260506121408 9 49 0.0 0.0 0.00 0.00 0.00 35
20260506121223 9 92 0.0 0.0 0.00 0.00 0.00 35
20260506120908 9 92 0.0 0.0 0.00 0.00 0.00 35
20260506120759 9 88 0.0 0.0 0.00 0.00 0.00 35
20260506120408 9 88 0.0 0.0 0.00 0.00 0.00 35
20260506120041 9 70 0.0 0.0 0.00 0.00 0.00 35
20260506115908 9 70 0.0 0.0 0.00 0.00 0.00 35
20260506115711 10 77 0.0 0.0 0.00 0.00 0.00 35
20260506115408 10 77 0.0 0.0 0.00 0.00 0.00 35
20260506115301 10 129 0.0 0.0 0.00 0.00 0.00 36
20260506114908 10 129 0.0 0.0 0.00 0.00 0.00 36
20260506114709 10 110 0.0 0.0 0.00 0.00 0.00 36
20260506114408 10 110 0.0 0.0 0.00 0.00 0.00 36
20260506114313 10 124 0.0 0.0 0.00 0.00 0.00 36
20260506113908 10 124 0.0 0.0 0.00 0.00 0.00 36
20260506113624 10 109 0.0 0.0 0.00 0.00 0.00 36
20260506113408 10 109 0.0 0.0 0.00 0.00 0.00 36
20260506113258 10 119 0.0 3.2 0.00 0.00 0.00 36
20260506112908 10 119 0.0 3.2 0.00 0.00 0.00 36
20260506112737 10 109 0.0 3.2 0.00 0.00 0.00 36
20260506112408 10 109 0.0 3.2 0.00 0.00 0.00 36
20260506112201 11 126 0.0 0.0 0.00 0.00 0.00 37
20260506111908 11 126 0.0 0.0 0.00 0.00 0.00 37
20260506111524 11 198 0.0 1.6 0.00 0.00 0.00 37
20260506111408 11 198 0.0 1.6 0.00 0.00 0.00 37
20260506111008 11 196 0.0 3.2 0.00 0.00 0.00 37
20260506110908 11 196 0.0 3.2 0.00 0.00 0.00 37
20260506110521 11 192 0.0 3.2 0.00 0.00 0.00 37
20260506110018 11 196 0.0 3.2 0.00 0.00 0.00 37
20260506105908 11 196 0.0 3.2 0.00 0.00 0.00 37
20260506105532 11 204 0.0 3.2 0.00 0.00 0.00 37
20260506105409 11 204 0.0 3.2 0.00 0.00 0.00 37
20260506105010 11 189 0.0 4.8 0.00 0.00 0.00 37
20260506104908 11 189 0.0 4.8 0.00 0.00 0.00 37
20260506104033 11 194 0.0 3.2 0.00 0.00 0.00 37
20260506103909 11 194 0.0 3.2 0.00 0.00 0.00 37
20260506103500 11 199 0.0 6.4 0.00 0.00 0.00 37
20260506103408 11 199 0.0 6.4 0.00 0.00 0.00 37
20260506103041 11 200 1.6 6.4 0.00 0.00 0.00 37
20260506102908 11 200 1.6 6.4 0.00 0.00 0.00 37
20260506102509 11 202 0.0 4.8 0.00 0.00 0.00 37
20260506102408 11 202 0.0 4.8 0.00 0.00 0.00 37
20260506102006 11 193 0.0 1.6 0.00 0.00 0.00 37
20260506101909 11 193 0.0 1.6 0.00 0.00 0.00 37
20260506101607 11 214 0.0 1.6 0.00 0.00 0.00 37
20260506101408 11 214 0.0 1.6 0.00 0.00 0.00 37
20260506101041 11 181 0.0 0.0 0.00 0.00 0.00 37
20260506100908 11 181 0.0 0.0 0.00 0.00 0.00 37
20260506100517 11 188 0.0 0.0 0.00 0.00 0.00 37
20260506100408 11 188 0.0 0.0 0.00 0.00 0.00 37
20260506100019 11 202 0.0 0.0 0.00 0.00 0.00 37
20260506095908 11 202 0.0 0.0 0.00 0.00 0.00 37
20260506095616 11 186 0.0 1.6 0.00 0.00 0.00 37
20260506095408 11 186 0.0 1.6 0.00 0.00 0.00 37
20260506095040 11 195 0.0 1.6 0.00 0.00 0.00 37
20260506094908 11 195 0.0 1.6 0.00 0.00 0.00 37
20260506094523 11 196 0.0 0.0 0.00 0.00 0.00 37
20260506094408 11 196 0.0 0.0 0.00 0.00 0.00 37
20260506094054 11 184 0.0 0.0 0.00 0.00 0.00 37
20260506093908 11 184 0.0 0.0 0.00 0.00 0.00 37
20260506093545 11 177 0.0 0.0 0.00 0.00 0.00 37
20260506093408 11 177 0.0 0.0 0.00 0.00 0.00 37
20260506093051 11 181 0.0 0.0 0.00 0.00 0.00 37
20260506092908 11 181 0.0 0.0 0.00 0.00 0.00 37
20260506092533 12 190 0.0 3.2 0.00 0.00 0.00 37
20260506092408 12 190 0.0 3.2 0.00 0.00 0.00 37
20260506092125 12 192 0.0 6.4 0.00 0.00 0.00 37
20260506091908 12 192 0.0 6.4 0.00 0.00 0.00 37
20260506091752 12 200 0.0 6.4 0.00 0.00 0.00 37
20260506091408 12 200 0.0 6.4 0.00 0.00 0.00 37
20260506091133 12 205 0.0 6.4 0.00 0.00 0.00 37
20260506090908 12 205 0.0 6.4 0.00 0.00 0.00 37
20260506090642 12 198 0.0 6.4 0.00 0.00 0.00 37
20260506090408 12 198 0.0 6.4 0.00 0.00 0.00 37
20260506090037 12 201 0.0 4.8 0.00 0.00 0.00 37
20260506085909 12 201 0.0 4.8 0.00 0.00 0.00 37
20260506085517 12 202 0.0 4.8 0.00 0.00 0.00 37
20260506085408 12 202 0.0 4.8 0.00 0.00 0.00 37
20260506085122 12 202 0.0 4.8 0.00 0.00 0.00 37
20260506084909 12 202 0.0 4.8 0.00 0.00 0.00 37
20260506084640 12 202 0.0 4.8 0.00 0.00 0.00 37
20260506084410 12 202 0.0 4.8 0.00 0.00 0.00 37
20260506084116 12 203 0.0 4.8 0.00 0.00 0.00 37
20260506083908 12 203 0.0 4.8 0.00 0.00 0.00 37
20260506083656 12 202 0.0 4.8 0.00 0.00 0.00 37
20260506083409 12 202 0.0 4.8 0.00 0.00 0.00 37
20260506083128 12 209 1.6 4.8 0.00 0.00 0.00 37
20260506082908 12 209 1.6 4.8 0.00 0.00 0.00 37
20260506082759 12 205 0.0 3.2 0.00 0.00 0.00 37
20260506082408 12 205 0.0 3.2 0.00 0.00 0.00 37
20260506082327 12 207 0.0 4.8 0.00 0.00 0.00 37
20260506081911 12 197 0.0 4.8 0.00 0.00 0.00 37
20260506081908 12 207 0.0 4.8 0.00 0.00 0.00 37
20260506081408 12 197 0.0 4.8 0.00 0.00 0.00 37
20260506081258 12 202 0.0 4.8 0.00 0.00 0.00 37
20260506080908 12 202 0.0 4.8 0.00 0.00 0.00 37
20260506080905 12 204 0.0 4.8 0.00 0.00 0.00 37
20260506080816 12 204 0.0 4.8 0.00 0.00 0.00 37
20260506080408 12 204 0.0 4.8 0.00 0.00 0.00 37
20260506080240 12 214 0.0 3.2 0.00 0.00 0.00 37
20260506073408 12 224 0.0 0.0 0.00 0.00 0.00 37
20260506073139 13 224 0.0 0.0 0.00 0.00 0.00 36
20260506072908 13 224 0.0 0.0 0.00 0.00 0.00 36
20260506072815 13 223 0.0 0.0 0.00 0.00 0.00 37
20260506072408 13 223 0.0 0.0 0.00 0.00 0.00 37
20260506072145 13 224 0.0 0.0 0.00 0.00 0.00 37
20260506071908 13 224 0.0 0.0 0.00 0.00 0.00 37
20260506071647 13 219 0.0 0.0 0.00 0.00 0.00 37
20260506071408 13 219 0.0 0.0 0.00 0.00 0.00 37
20260506071240 13 212 0.0 0.0 0.00 0.00 0.00 37
20260506070908 13 212 0.0 0.0 0.00 0.00 0.00 37
20260506070642 13 220 0.0 0.0 0.00 0.00 0.00 37
20260506070408 13 220 0.0 0.0 0.00 0.00 0.00 37
20260506070114 13 226 0.0 0.0 0.00 0.00 0.00 37
20260506062408 14 236 0.0 1.6 0.00 0.00 0.00 37
20260506062259 15 248 0.0 9.7 0.00 0.00 0.00 37
20260506061908 15 248 0.0 9.7 0.00 0.00 0.00 37
20260506061656 15 251 0.0 9.7 0.00 0.00 0.00 37
20260506061408 15 251 0.0 9.7 0.00 0.00 0.00 37
20260506061400 15 256 1.6 9.7 0.00 0.00 0.00 36
20260506060908 15 256 1.6 9.7 0.00 0.00 0.00 36
20260506060607 15 253 0.0 11.3 0.00 0.00 0.00 36
20260506060408 15 253 0.0 11.3 0.00 0.00 0.00 36
20260506051408 15 242 0.0 0.0 0.00 0.00 0.00 36
20260506051257 15 229 0.0 0.0 0.00 0.00 0.00 36
20260506050908 15 229 0.0 0.0 0.00 0.00 0.00 36
20260506050758 15 245 0.0 0.0 0.00 0.00 0.00 37
20260506050408 15 245 0.0 0.0 0.00 0.00 0.00 37
20260506050246 15 250 0.0 0.0 0.00 0.00 0.00 36
20260506044908 16 269 0.0 0.0 0.00 0.00 0.00 36
20260506044525 16 265 0.0 8.0 0.00 0.00 0.00 36
20260506044410 16 265 0.0 8.0 0.00 0.00 0.00 36
20260506044128 16 264 0.0 11.3 0.00 0.00 0.00 36
20260506043908 16 264 0.0 11.3 0.00 0.00 0.00 36
20260506043648 16 265 1.6 11.3 0.00 0.00 0.00 36
20260506043408 16 265 1.6 11.3 0.00 0.00 0.00 36
20260506043131 16 262 3.2 12.9 0.00 0.00 0.00 36
20260506042908 16 262 3.2 12.9 0.00 0.00 0.00 36
20260506042716 16 255 4.8 14.5 0.00 0.00 0.00 36
20260506042408 16 255 4.8 14.5 0.00 0.00 0.00 36
20260506042155 16 255 4.8 14.5 0.00 0.00 0.00 36
20260506041908 16 255 4.8 14.5 0.00 0.00 0.00 36
20260506041720 16 253 4.8 12.9 0.00 0.00 0.00 36
20260506041408 16 253 4.8 12.9 0.00 0.00 0.00 36
20260506041044 16 247 1.6 9.7 0.00 0.00 0.00 36
20260506040910 16 247 1.6 9.7 0.00 0.00 0.00 36
20260506040634 16 253 1.6 9.7 0.00 0.00 0.00 36
20260506040408 16 253 1.6 9.7 0.00 0.00 0.00 36
20260506040223 16 252 0.0 9.7 0.00 0.00 0.00 36
20260506035908 16 252 0.0 9.7 0.00 0.00 0.00 36
20260506035733 16 239 0.0 0.0 0.00 0.00 0.00 36
20260506035408 16 239 0.0 0.0 0.00 0.00 0.00 36
20260506035231 17 234 0.0 3.2 0.00 0.00 0.00 36
20260506034908 17 234 0.0 3.2 0.00 0.00 0.00 36
20260506034655 17 238 0.0 3.2 0.00 0.00 0.00 36
20260506034408 17 238 0.0 3.2 0.00 0.00 0.00 36
20260506034201 17 261 0.0 1.6 0.00 0.00 0.00 36
20260506033908 17 261 0.0 1.6 0.00 0.00 0.00 36
20260506033556 17 262 0.0 12.9 0.00 0.00 0.00 36
20260506033409 17 262 0.0 12.9 0.00 0.00 0.00 36
20260506033216 17 257 3.2 12.9 0.00 0.00 0.00 36
20260506032908 17 257 3.2 12.9 0.00 0.00 0.00 36
20260506032733 17 260 3.2 14.5 0.00 0.00 0.00 36
20260506032408 17 260 3.2 14.5 0.00 0.00 0.00 36
20260506032110 17 259 4.8 14.5 0.00 0.00 0.00 36
20260506031908 17 259 4.8 14.5 0.00 0.00 0.00 36
20260506031732 17 265 6.4 14.5 0.00 0.00 0.00 36
20260506031408 17 265 6.4 14.5 0.00 0.00 0.00 36
20260506031150 17 264 6.4 16.1 0.00 0.00 0.00 36
20260506030908 17 264 6.4 16.1 0.00 0.00 0.00 36
20260506030638 17 263 9.7 16.1 0.00 0.00 0.00 36
20260506030408 17 263 9.7 16.1 0.00 0.00 0.00 36
20260506030205 17 262 9.7 16.1 0.00 0.00 0.00 36
20260506025733 17 258 8.0 19.3 0.00 0.00 0.00 36
20260506025408 17 258 8.0 19.3 0.00 0.00 0.00 36
20260506025209 17 256 12.9 19.3 0.00 0.00 0.00 36
20260506024908 17 256 12.9 19.3 0.00 0.00 0.00 36
20260506024655 17 266 9.7 16.1 0.00 0.00 0.00 36
20260506024408 17 266 9.7 16.1 0.00 0.00 0.00 36
20260506024103 18 263 9.7 19.3 0.00 0.00 0.00 36
20260506023908 18 263 9.7 19.3 0.00 0.00 0.00 36